Regional Weather Roundup
Issued by NWS Huntsville, AL

Home | Current Version | Previous Version | Text Only | Print | Product List | Glossary On
Versions: 1 2 3 4 5 6 7 8 9 10 11 12 13 14 15 16 17 18 19 20 21 22 23 24 25 26 27 28 29 30 31 32 33 34 35 36 37 38 39 40 41 42 43 44 45 46 47 48 49 50
000
ASUS44 KHUN 070910
RWRHUN

WEATHER ROUNDUP FOR THE TENNESSEE VALLEY
NATIONAL WEATHER SERVICE HUNTSVILLE AL
400 AM CDT THU MAY 07 2015

ALZ001>004-071000-
NORTHWEST ALABAMA

CITY           SKY/WX    TMP DP  RH WIND       PRES   REMARKS
COURTLAND HCN    N/A     54 N/A N/A CALM        N/A
RUSSELLVILLE     N/A     54 N/A N/A MISG        N/A
SHOALS AIRPORT CLEAR     56  52  86 CALM      30.10R
SHOALS TVA RES   N/A     54 N/A N/A MISG        N/A
$$

ALZ005>007-016-071000-
NORTH CENTRAL ALABAMA

CITY           SKY/WX    TMP DP  RH WIND       PRES   REMARKS
CULLMAN AG STN   N/A     52 N/A N/A CALM        N/A
DECATUR AP     CLEAR     55  53  93 CALM      30.10R
HUNTSVILLE AP  CLEAR     61  55  81 E5        30.10R
HUN NWS/UAH      N/A     59  53  81 CALM        N/A
MERIDIANVILLE  CLEAR     54  50  87 CALM      30.11R
REDSTONE ARSN  CLEAR     56  55  94 NE2       30.10R
VINEMONT AP    FAIR      52  51  97 CALM      30.12R
$$

ALZ008>010-071000-
NORTHEAST ALABAMA

CITY           SKY/WX    TMP DP  RH WIND       PRES   REMARKS
ALBERTVILLE    CLEAR     55  55 100 E3        30.10S
FORT PAYNE     CLEAR     52  48  87 NE3       30.11R FOG
SCOTTSBORO HCN   N/A     54 N/A N/A MISG        N/A
VALLEY HEAD      N/A     50 N/A N/A MISG        N/A
$$

TNZ076-096-097-071000-
SOUTHEASTERN MIDDLE TENNESSEE

CITY           SKY/WX    TMP DP  RH WIND       PRES   REMARKS
TULLAHOMA      CLEAR     52  48  87 CALM      30.13S
WINCHESTER     CLEAR     54  52  94 CALM      30.12S
$$

...SURROUNDING SITES...

CITY           SKY/WX    TMP DP  RH WIND       PRES   REMARKS
ATLANTA        PTCLDY    64  53  67 CALM      30.09F
ANNISTON       CLEAR     56  53  90 CALM      30.10R
BIRMINGHAM     CLEAR     58  55  90 CALM      30.10S
CHATTANOOGA    CLEAR     58  55  90 CALM      30.11S
DALTON         CLEAR     52  52 100 CALM      30.11S
GADSDEN        CLEAR    N/A N/A N/A SW3       30.09R
GOLDEN TRNGL   CLOUDY    64  57  77 SE3       30.06S
HALEYVILLE       N/A     52  52 100 MISG      30.12R
JACKSON TN     PTCLDY    56  53  90 E5        30.06S
LEWISBURG      FAIR      51  49  93 CALM      30.10S
MEMPHIS        MOCLDY    70  57  63 SE10      30.03S
NASHVILLE      PTCLDY    59  56  89 S3        30.10S
OXFORD MS      FAIR      64  57  77 SE7       30.07S
ROME           CLEAR     54  51  90 CALM      30.10S
SAVANNAH       CLEAR     52  32  46 CALM      30.09R
TUPELO         PTCLDY    61  57  87 CALM      30.07R
TUSCALOOSA     CLEAR     59  56  89 CALM      30.07S
$$

...GULF COAST WEATHER...

CITY           SKY/WX    TMP DP  RH WIND       PRES   REMARKS
GULFPORT       CLEAR     66  64  93 CALM      30.02S
PASCAGOULA     CLEAR     58  58 100 CALM      30.04S
MOBILE         CLEAR     63  62  97 CALM      30.05S
GULF SHORES    SUNNY     60  60 100 CALM      30.04S
PENSACOLA      CLEAR     61  61 100 CALM      30.04R
DESTIN         CLEAR     68  66  93 CALM      30.04R
PANAMA CITY    CLEAR     66  64  94 CALM      30.04S FOG
APPALACHICOLA  CLEAR     68  64  87 NE5       30.03S
$$




USA.gov is the U.S. government's official web portal to all federal, state and local government web resources and services.